Back to catalog

STARLINK-36570

AliveCommunicationsVLEO
NORAD 67640·PAYLOAD·🇺🇸 United States

Launched Jan 30, 2026 from Cape Canaveral Space Force Station

Loading…

Next Passes (next 24 hours)

TLE

FreshSource: CelesTrak SupGP

Epoch: Sep 14, 2026, 14:43 UTC

1 67640C 26020Z   26257.61368056  .00038214  00000+0  13843-2 0  2575
2 67640  43.0018 152.6273 0001434 263.6995 305.9808 15.27555800    11

Track STARLINK-36570 in real time with AllMySat

Download on the App Store